TimeCDT,TemperatureF,Dew PointF,Humidity,Sea Level PressureIn,VisibilityMPH,Wind Direction,Wind SpeedMPH,Gust SpeedMPH,PrecipitationIn,Events,Conditions,WindDirDegrees,DateUTC
12:55 AM,78.1,66.9,68,30.06,10.0,South,15.0,-,N/A,,Clear,180,2013-08-26 05:55:00
1:55 AM,77.0,66.9,71,30.06,10.0,South,17.3,-,N/A,,Clear,190,2013-08-26 06:55:00
2:55 AM,75.9,66.9,74,30.06,10.0,South,16.1,-,N/A,,Clear,190,2013-08-26 07:55:00
3:55 AM,75.0,68.0,79,30.06,10.0,SSW,15.0,23.0,N/A,,Clear,200,2013-08-26 08:55:00
4:55 AM,75.0,68.0,79,30.06,10.0,SSW,16.1,-,N/A,,Clear,200,2013-08-26 09:55:00
5:55 AM,73.9,68.0,82,30.06,10.0,SSW,13.8,-,N/A,,Clear,200,2013-08-26 10:55:00
6:55 AM,73.9,68.0,82,30.07,10.0,South,12.7,-,N/A,,Clear,190,2013-08-26 11:55:00
7:55 AM,75.0,68.0,79,30.06,10.0,SSW,13.8,-,N/A,,Clear,200,2013-08-26 12:55:00
8:55 AM,78.1,69.1,74,30.06,10.0,SSW,15.0,21.9,N/A,,Clear,200,2013-08-26 13:55:00
9:55 AM,82.0,69.1,65,30.06,10.0,SSW,16.1,23.0,N/A,,Clear,210,2013-08-26 14:55:00
10:55 AM,84.9,69.1,59,30.06,10.0,SSW,18.4,25.3,N/A,,Clear,200,2013-08-26 15:55:00
11:55 AM,88.0,68.0,51,30.05,10.0,SSW,20.7,25.3,N/A,,Clear,200,2013-08-26 16:55:00
12:55 PM,90.0,68.0,48,30.04,10.0,SSW,19.6,24.2,N/A,,Clear,200,2013-08-26 17:55:00
1:55 PM,91.9,69.1,47,30.01,10.0,SSW,18.4,25.3,N/A,,Clear,200,2013-08-26 18:55:00
2:55 PM,91.9,68.0,45,29.99,10.0,SSW,13.8,25.3,N/A,,Clear,200,2013-08-26 19:55:00
3:55 PM,91.9,66.9,44,29.98,10.0,SSW,15.0,24.2,N/A,,Clear,200,2013-08-26 20:55:00
4:55 PM,91.0,66.9,45,29.98,10.0,South,17.3,24.2,N/A,,Clear,180,2013-08-26 21:55:00
5:55 PM,91.0,66.0,44,29.97,10.0,South,13.8,23.0,N/A,,Clear,180,2013-08-26 22:55:00
6:55 PM,89.1,66.0,46,29.97,10.0,South,15.0,-,N/A,,Clear,180,2013-08-26 23:55:00
7:55 PM,86.0,64.9,49,29.97,10.0,South,13.8,-,N/A,,Clear,180,2013-08-27 00:55:00
8:55 PM,80.1,66.0,62,29.98,10.0,SSE,8.1,-,N/A,,Clear,160,2013-08-27 01:55:00
9:55 PM,80.1,64.9,60,29.97,10.0,South,12.7,-,N/A,,Clear,180,2013-08-27 02:55:00
10:55 PM,80.1,64.9,60,29.96,10.0,South,13.8,-,N/A,,Clear,180,2013-08-27 03:55:00
11:55 PM,78.1,66.0,66,29.97,10.0,South,18.4,23.0,N/A,,Clear,180,2013-08-27 04:55:00